Voltar ao catálogo

STARLINK-11492

AtivoComunicaçõesVLEO
NORAD 62224·PAYLOAD·🇺🇸 United States

Lançado Dec 5, 2024 de Vandenberg Space Force Base

Loading…

Próximas Passagens (próximas 24 horas)

TLE

AtualizadoSource: CelesTrak SupGP

Época: Sep 15, 2026, 03:33 UTC

1 62224C 24231G   26258.14840278  .00023187  00000+0  19112-3 0  2580
2 62224  53.1574 247.5498 0001247  87.5668 318.7744 15.69682418    11

Acompanhe STARLINK-11492 em tempo real com AllMySat

Download on the App Store